CAPE
1 0 0 0 0 0 47 362 664 791 883 1031 1867 1929 2046 2383 2061 1540 729 1 0 0 0 0 0 0 0 0 0 0 0 0 0 0 0 0 0 0 0 0 0 0 0
22 44 70 24 0 0 0 48 328 482 517 598 1059 2044 2029 2330 2201 1653 782 16 0 0 0 0 0 0 0 0 0 0 0 0 0 0 0 0 0 0 0 0 0 0 0
31 105 133 130 125 35 0 0 42 235 273 265 868 1265 1745 2239 2310 1679 646 4 0 0 0 0 0 0 0 0 0 0 0 0 0 0 0 0 0 0 0 0 0 0 0
65 122 173 205 316 257 108 0 0 3 122 701 1442 1746 2024 2369 2281 1582 335 0 0 0 0 0 0 0 0 0 0 0 0 0 0 0 0 0 0 0 0 0 0 0 0
224 209 195 171 341 415 428 296 0 121 345 1146 1735 2012 2229 2376 2089 1110 102 0 0 0 0 0 0 0 0 0 0 0 0 0 0 0 0 0 0 0 0 1 0 2 0
354 375 341 258 303 431 555 647 592 393 584 1315 1758 2129 2265 2393 1725 718 104 0 0 0 0 0 0 0 0 0 0 0 0 0 0 0 0 0 0 0 0 0 0 0 1
480 520 558 548 541 611 694 851 942 960 1168 1349 1757 2141 2333 2402 1298 379 68 0 0 0 0 0 0 0 0 0 0 0 0 0 0 0 0 0 0 0 1 0 0 0 0
621 665 737 715 778 837 932 1035 1108 1201 1303 1451 1703 2097 2298 1929 873 225 38 0 0 0 0 0 0 0 0 0 0 0 0 0 0 0 0 0 0 2 0 0 0 0 0
646 742 834 896 891 924 1025 1075 1172 1305 1430 1561 1841 2129 2110 1303 370 106 10 0 0 0 0 0 0 0 0 0 0 0 0 0 0 0 0 0 0 0 0 0 1 0 1
663 718 846 959 936 898 1019 1038 1272 1406 1484 1762 1977 2226 1894 1143 62 49 6 0 0 0 0 0 0 0 0 0 0 0 0 0 0 0 0 0 0 0 0 1 2 1 1
447 792 905 963 1011 1004 1144 1213 1260 1366 1565 1755 2027 2047 1592 826 113 22 6 0 0 0 0 0 0 0 0 0 0 0 0 0 0 0 0 0 0 0 2 2 1 2 0
230 605 916 1034 1073 1169 1271 1322 1452 1472 1511 1712 1980 1785 1285 618 188 14 9 0 0 0 0 0 0 0 0 0 0 0 0 0 0 0 0 0 0 0 1 0 2 3 3
474 878 932 977 1143 1270 1276 1337 1452 1578 1557 1659 1723 1745 1238 659 113 4 0 0 0 0 0 0 0 0 0 0 0 0 0 0 0 0 0 0 0 0 0 0 0 2 0
487 676 1285 1132 1208 1369 1444 1446 1505 1530 1638 1829 1740 1708 1307 876 338 9 0 0 0 0 0 0 0 0 0 0 0 0 0 0 0 0 0 0 0 0 0 0 0 2 1
0 229 477 1477 1539 1676 1736 1526 1781 1774 1779 1719 1933 1702 1263 1297 668 105 66 14 0 0 0 0 0 0 0 0 0 0 0 0 0 0 0 0 0 0 0 0 0 0 1
45 217 262 629 1806 2099 1922 1422 285 568 986 1381 1892 2016 1658 1438 823 161 15 4 0 0 0 0 0 0 0 0 0 0 0 0 0 0 0 0 0 0 0 0 0 1 0
65 83 359 773 1058 2547 2057 2076 1936 170 38 212 416 618 871 1511 770 221 0 0 0 0 0 0 0 0 0 0 0 0 0 0 0 0 0 0 0 0 0 0 0 0 0
168 193 369 854 1629 2322 2268 1989 1756 1463 1017 416 0 106 53 181 16 8 0 0 0 0 0 0 0 0 0 0 0 0 0 0 0 0 0 0 0 0 0 0 0 0 0
41 132 257 488 771 1125 1140 1040 911 648 472 262 5 0 0 1 4 2 0 30 7 0 0 0 0 0 0 0 0 0 0 0 0 0 0 0 0 0 0 0 0 0 0
1 3 56 154 324 315 266 314 268 253 159 71 0 0 0 0 0 0 2 5 1 0 0 0 0 0 0 0 0 0 0 0 0 0 0 0 0 0 0 0 0 0 0
2 0 0 1 1 1 2 43 9 11 4 1 0 0 0 0 0 0 0 13 0 0 0 0 0 0 0 0 0 0 0 0 0 0 0 0 0 0 0 0 0 0 0
3 2 1 0 1 1 1 1 1 0 0 0 0 0 0 0 0 0 7 4 2 0 0 0 0 0 0 0 0 0 0 0 0 0 0 0 0 0 0 0 0 0 0
2 2 3 1 2 1 0 1 0 1 1 0 1 0 1 2 2 2 5 0 0 0 0 0 0 0 0 0 0 0 0 0 0 0 0 0 0 0 0 0 0 0 0
3 2 3 4 4 3 5 3 5 4 3 1 1 1 1 1 1 0 1 3 2 8 7 0 0 0 0 0 0 0 0 0 0 0 0 0 0 0 0 0 0 0 0
3 4 3 4 3 4 4 7 7 7 8 7 6 5 3 2 1 1 3 4 1 0 0 0 0 0 0 0 0 0 0 0 0 0 0 0 0 0 0 0 0 0 0
0 3 5 2 2 1 2 1 0 0 2 4 6 6 6 8 8 5 3 3 5 6 10 10 8 4 4 1 0 0 0 0 0 0 0 0 0 0 0 0 0 0 0
CIN
-305 -0 -0 -0 -0 -0 -250 -231 -185 -185 -190 -159 -51 -47 -37 -17 -40 -81 -246 -178 -0 -0 -0 -0 -0 -0 -0 -0 -0 -0 -0 -0 -0 -0 -0 -0 -0 -0 -0 -0 -0 -0 -0
-329 -298 -267 -275 -0 -0 -0 -294 -258 -228 -268 -267 -183 -48 -43 -21 -32 -67 -243 -554 -0 -0 -0 -0 -0 -0 -0 -0 -0 -0 -0 -0 -0 -0 -0 -0 -0 -0 -0 -0 -0 -0 -0
-343 -270 -257 -214 -252 -335 -0 -0 -277 -294 -304 -351 -248 -156 -90 -25 -24 -65 -292 -509 -0 -0 -0 -0 -0 -0 -0 -0 -0 -0 -0 -0 -0 -0 -0 -0 -0 -0 -0 -0 -0 -0 -0
-319 -263 -227 -181 -208 -234 -275 -0 -0 -81 -327 -250 -161 -103 -64 -21 -27 -88 -422 -0 -0 -0 -0 -0 -0 -0 -0 -0 -0 -0 -0 -0 -0 -0 -0 -0 -0 -0 -0 -0 -0 -0 -0
-296 -271 -231 -198 -177 -192 -219 -256 -0 -317 -283 -188 -129 -83 -42 -22 -39 -205 -589 -0 -0 -0 -0 -0 -0 -0 -0 -0 -0 -0 -0 -0 -0 -0 -0 -0 -0 -0 -0 -0 -0 -0 -0
-270 -227 -247 -222 -189 -175 -191 -192 -214 -254 -259 -178 -123 -72 -48 -25 -107 -329 -583 -0 -0 -0 -0 -0 -0 -0 -0 -0 -0 -0 -0 -0 -0 -0 -0 -0 -0 -0 -0 -0 -0 -0 -0
-247 -240 -227 -199 -164 -156 -160 -160 -157 -165 -175 -160 -124 -83 -51 -34 -207 -453 -664 -0 -0 -0 -0 -0 -0 -0 -0 -0 -0 -0 -0 -0 -0 -0 -0 -0 -0 -0 -0 -0 -0 -0 -0
-237 -207 -206 -164 -140 -149 -147 -137 -132 -137 -144 -149 -137 -100 -67 -107 -341 -565 -772 -0 -0 -0 -0 -0 -0 -0 -0 -0 -0 -0 -0 -0 -0 -0 -0 -0 -0 -0 -0 -0 -0 -0 -0
-223 -201 -204 -193 -148 -143 -133 -131 -131 -132 -123 -131 -121 -97 -106 -242 -531 -664 -891 -0 -0 -0 -0 -0 -0 -0 -0 -0 -0 -0 -0 -0 -0 -0 -0 -0 -0 -0 -0 -0 -0 -0 -0
-296 -222 -223 -225 -173 -144 -138 -128 -142 -132 -113 -97 -87 -86 -152 -291 -720 -756 -932 -0 -0 -0 -0 -0 -0 -0 -0 -0 -0 -0 -0 -0 -0 -0 -0 -0 -0 -0 -0 -0 -0 -0 -0
-470 -320 -258 -241 -196 -171 -178 -171 -144 -128 -111 -87 -73 -102 -204 -365 -677 -843 -954 -0 -0 -0 -0 -0 -0 -0 -0 -0 -0 -0 -0 -0 -0 -0 -0 -0 -0 -0 -0 -0 -0 -0 -0
-574 -434 -313 -265 -230 -213 -183 -166 -159 -142 -109 -97 -80 -132 -229 -411 -581 -869 -970 -0 -0 -0 -0 -0 -0 -0 -0 -0 -0 -0 -0 -0 -0 -0 -0 -0 -0 -0 -0 -0 -0 -0 -0
-398 -349 -293 -260 -243 -236 -191 -156 -133 -124 -109 -110 -120 -121 -200 -352 -643 -980 -15 -0 -0 -0 -0 -0 -0 -0 -0 -0 -0 -0 -0 -0 -0 -0 -0 -0 -0 -0 -0 -0 -0 -0 -0
-252 -248 -202 -243 -218 -229 -209 -184 -161 -129 -110 -91 -100 -88 -151 -239 -428 -913 -0 -0 -0 -0 -0 -0 -0 -0 -0 -0 -0 -0 -0 -0 -0 -0 -0 -0 -0 -0 -0 -0 -0 -0 -0
-17 -347 -168 -161 -170 -165 -169 -197 -137 -111 -87 -74 -71 -98 -132 -113 -251 -509 -617 -873 -0 -0 -0 -0 -0 -0 -0 -0 -0 -0 -0 -0 -0 -0 -0 -0 -0 -0 -0 -0 -0 -0 -0
-166 -77 -91 -126 -94 -90 -105 -175 -515 -390 -251 -161 -60 -46 -93 -102 -234 -524 -776 -882 -0 -0 -0 -0 -0 -0 -0 -0 -0 -0 -0 -0 -0 -0 -0 -0 -0 -0 -0 -0 -0 -0 -0
-314 -230 -144 -79 -19 -35 -63 -56 -46 -565 -696 -490 -370 -303 -223 -103 -209 -461 -0 -0 -0 -0 -0 -0 -0 -0 -0 -0 -0 -0 -0 -0 -0 -0 -0 -0 -0 -0 -0 -0 -0 -0 -0
-415 -413 -316 -211 -101 -38 -40 -80 -87 -89 -131 -318 -0 -404 -570 -398 -374 -182 -0 -0 -0 -0 -0 -0 -0 -0 -0 -0 -0 -0 -0 -0 -0 -0 -0 -0 -0 -0 -0 -0 -0 -0 -0
-449 -444 -371 -293 -219 -154 -172 -172 -201 -261 -307 -350 -244 -0 -0 -0 -0 -0 -0 -597 -686 -0 -0 -0 -0 -0 -0 -0 -0 -0 -0 -0 -0 -0 -0 -0 -0 -0 -0 -0 -0 -0 -0
-0 -38 -397 -336 -298 -302 -322 -271 -314 -308 -340 -334 -21 -0 -0 -0 -0 -0 -0 -614 -423 -0 -0 -0 -0 -0 -0 -0 -0 -0 -0 -0 -0 -0 -0 -0 -0 -0 -0 -0 -0 -0 -0
-0 -0 -0 -0 -0 -0 -0 -342 -380 -423 -391 -369 -0 -0 -0 -0 -0 -0 -0 -534 -0 -0 -0 -0 -0 -0 -0 -0 -0 -0 -0 -0 -0 -0 -0 -0 -0 -0 -0 -0 -0 -0 -0
-0 -0 -0 -0 -0 -0 -0 -0 -0 -0 -0 -0 -0 -0 -0 -0 -0 -0 -0 -0 -0 -0 -0 -0 -0 -0 -0 -0 -0 -0 -0 -0 -0 -0 -0 -0 -0 -0 -0 -0 -0 -0 -0
-0 -0 -0 -0 -0 -0 -0 -0 -0 -0 -0 -0 -0 -0 -0 -0 -0 -0 -0 -0 -0 -0 -0 -0 -0 -0 -0 -0 -0 -0 -0 -0 -0 -0 -0 -0 -0 -0 -0 -0 -0 -0 -0
-0 -0 -0 -0 -0 -0 -0 -0 -0 -0 -0 -0 -0 -0 -0 -0 -0 -0 -0 -0 -0 -0 -0 -0 -0 -0 -0 -0 -0 -0 -0 -0 -0 -0 -0 -0 -0 -0 -0 -0 -0 -0 -0
-0 -0 -0 -0 -0 -0 -0 -0 -0 -0 -0 -0 -0 -0 -0 -0 -0 -0 -0 -0 -0 -0 -0 -0 -0 -0 -0 -0 -0 -0 -0 -0 -0 -0 -0 -0 -0 -0 -0 -0 -0 -0 -0
-0 -0 -0 -0 -0 -0 -0 -0 -0 -0 -0 -0 -0 -0 -0 -0 -0 -0 -0 -0 -0 -0 -0 -0 -0 -0 -0 -0 -0 -0 -0 -0 -0 -0 -0 -0 -0 -0 -0 -0 -0 -0 -0
Wind_Speed
17 17 17 22 24 21 20 19 16 14 10 8 14 12 9 10 14 17 18 20 23 23 24 24 25 24 24 24 25 25 26 22 22 20 19 19 19 19 20 21 21 21 21
14 10 15 16 21 23 23 21 18 18 13 10 16 15 10 9 12 14 17 19 21 23 24 25 25 25 27 27 27 28 27 26 23 23 22 21 21 20 19 17 16 17 18
9 9 11 11 18 22 25 23 18 20 18 14 20 17 13 10 11 13 16 18 20 21 22 23 24 25 27 28 28 29 28 29 29 27 26 24 21 20 18 19 19 14 15
10 9 10 10 16 21 23 25 18 16 15 5 18 22 13 11 12 14 16 18 19 20 21 23 23 25 27 28 30 31 30 32 31 31 29 28 25 21 20 19 19 15 15
10 10 9 10 11 8 24 21 15 10 7 2 14 18 14 10 12 13 15 16 18 19 21 23 24 25 27 29 31 32 33 34 35 34 33 32 30 24 21 16 16 16 17
10 9 10 18 18 13 10 9 5 7 4 6 11 13 11 9 10 12 13 14 16 18 20 22 23 25 26 28 30 32 33 35 36 35 34 35 32 26 21 20 21 20 18
8 10 9 13 14 11 10 11 8 8 12 7 10 11 9 8 10 11 12 13 15 16 18 20 22 23 24 26 28 30 33 34 34 34 36 36 33 28 23 21 21 22 21
5 6 8 11 14 15 13 11 14 16 12 10 7 7 10 8 9 10 12 13 14 15 17 18 20 21 21 23 25 26 28 30 32 33 36 35 33 29 25 21 19 19 20
7 9 9 10 12 13 12 11 13 15 15 11 10 7 7 6 9 11 12 12 13 14 15 16 18 19 19 21 22 24 25 26 28 32 36 36 34 32 31 27 26 21 22
15 14 14 13 12 9 9 9 10 10 9 10 9 7 5 3 9 10 10 11 12 14 14 14 15 17 18 19 21 22 25 24 24 27 33 36 35 33 33 32 27 29 23
25 21 17 12 8 8 11 9 4 4 6 7 8 6 3 1 7 9 9 10 11 12 13 13 13 15 15 17 18 20 23 23 23 25 28 32 33 34 34 33 30 30 30
28 30 24 22 12 10 10 12 9 5 3 4 7 6 6 4 3 9 9 7 9 10 11 11 12 13 13 14 17 18 21 23 23 24 24 28 31 31 33 34 33 32 32
30 32 35 27 8 6 5 5 8 5 3 4 5 7 7 7 4 5 6 5 7 9 10 11 12 13 14 15 16 18 19 22 22 23 23 25 26 25 26 30 32 33 37
25 26 28 25 20 7 4 4 4 5 4 6 8 9 9 8 8 5 3 4 4 7 9 10 11 13 14 15 16 17 18 20 20 22 24 25 26 25 29 30 31 33 37
29 29 30 28 16 10 11 9 6 9 6 6 8 8 8 10 10 5 4 1 1 4 7 9 10 11 12 13 15 16 16 18 20 21 23 25 26 27 28 29 31 33 37
12 28 32 30 21 10 9 12 15 14 11 10 8 7 9 10 8 8 6 3 2 3 5 6 7 8 10 12 13 16 16 16 19 20 22 24 26 25 27 29 30 32 34
19 18 22 18 22 13 10 8 7 15 14 15 13 12 12 10 9 8 9 5 4 2 3 3 5 7 9 11 12 13 15 15 17 19 21 23 25 25 25 27 28 29 29
22 23 23 23 20 15 11 14 11 11 13 15 16 16 15 11 9 8 8 8 8 8 7 3 3 6 7 9 11 12 14 15 17 18 20 22 23 24 24 25 26 28 28
21 22 22 21 19 16 15 12 10 10 9 11 12 14 15 11 8 9 9 10 12 11 8 6 4 3 6 8 10 11 13 14 15 17 18 19 21 22 22 23 24 25 28
23 22 19 19 18 18 17 13 13 11 12 14 16 8 11 21 26 13 10 18 18 15 12 9 6 6 3 7 8 10 12 13 14 16 17 17 19 20 21 22 23 24 25
23 22 20 19 19 18 17 16 15 13 14 17 21 31 21 17 10 11 13 16 14 15 12 12 10 7 3 4 7 9 11 12 14 14 16 16 16 18 20 21 21 23 24
22 21 19 19 18 18 17 18 18 18 18 20 22 20 18 15 10 3 5 8 12 11 15 13 12 9 6 3 7 8 9 11 12 13 15 15 14 15 17 19 20 22 23
19 19 19 18 17 18 18 19 19 20 18 19 20 20 18 15 8 6 5 10 15 18 18 17 17 13 10 4 4 6 6 9 11 13 12 14 14 12 13 15 17 18 21
18 17 17 16 15 15 16 17 17 18 18 17 18 18 17 15 12 14 8 7 16 14 13 13 14 12 11 11 11 9 5 4 6 10 13 12 12 13 11 12 13 14 16
18 16 15 16 15 14 14 14 15 16 17 16 16 17 16 14 11 12 11 8 12 8 12 12 13 15 15 14 15 16 13 4 4 6 9 12 11 10 10 10 11 11 10
16 16 15 14 14 14 13 13 13 14 15 16 17 17 16 16 15 13 11 9 9 7 9 9 13 14 16 18 18 17 15 12 3 2 4 7 8 8 8 8 8 8 8
Wind_Direction
182 181 180 185 186 182 182 180 173 165 145 70 201 201 150 120 88 79 81 77 69 67 64 61 58 58 56 54 51 49 47 49 47 47 46 45 46 43 37 29 26 21 14
191 209 188 183 184 187 188 187 181 184 171 159 199 207 194 129 95 88 82 74 68 62 61 61 58 59 54 55 53 50 47 46 47 44 42 39 45 44 39 39 41 36 25
222 220 249 200 185 188 192 190 184 188 190 177 210 217 203 120 99 94 81 70 69 67 64 62 62 60 55 54 53 50 51 48 46 46 44 43 46 43 43 40 32 35 28
233 231 244 222 187 187 189 192 183 179 177 127 304 245 196 86 80 75 73 71 71 67 64 60 62 59 57 56 53 50 51 49 47 45 44 40 38 43 41 38 35 46 41
244 238 225 240 243 226 188 185 180 175 168 347 314 304 350 67 70 70 71 74 69 64 59 55 57 60 60 57 54 51 49 48 46 45 43 39 39 44 50 58 67 71 71
251 224 252 261 259 258 187 186 221 187 250 297 311 320 3 56 76 70 73 74 70 64 58 59 60 61 62 58 54 53 50 47 45 46 43 39 40 49 58 68 72 76 81
256 256 254 258 255 250 254 265 261 267 279 280 300 317 351 58 89 79 72 73 69 69 67 67 64 65 64 60 56 52 50 49 49 49 43 41 44 50 63 73 73 70 71
246 256 262 262 262 263 264 262 271 274 276 275 290 315 328 26 100 87 79 79 71 73 77 75 70 68 67 62 57 53 50 51 49 49 45 45 48 55 64 71 78 81 81
242 261 264 267 269 267 266 267 272 272 273 271 281 300 323 15 114 103 85 75 74 79 84 82 74 71 70 65 57 53 50 51 54 50 47 47 51 57 59 68 69 78 78
261 266 268 267 268 270 273 277 279 274 268 269 276 289 309 30 124 112 85 76 82 82 89 86 82 76 73 67 58 54 47 52 58 54 49 48 52 57 58 60 68 69 81
260 266 269 268 253 262 273 282 286 280 276 264 265 277 286 346 131 125 102 89 90 84 88 90 84 79 76 69 63 57 50 56 63 58 54 51 53 56 58 63 68 72 76
259 255 266 266 268 268 270 277 281 282 279 265 257 265 285 293 134 139 124 84 94 82 88 80 85 84 82 76 66 61 56 58 65 60 61 56 55 60 61 63 68 75 80
263 259 250 260 254 242 245 257 276 267 237 267 264 258 271 284 290 148 127 58 88 80 80 80 81 79 77 75 68 63 61 58 64 62 64 63 61 68 71 74 75 79 79
275 268 257 256 261 249 221 258 251 211 238 266 278 275 271 274 284 284 299 348 56 35 49 73 73 71 71 70 68 65 64 63 68 67 68 67 66 72 75 80 86 90 88
278 274 268 252 259 263 271 283 287 286 274 271 271 266 258 262 270 234 188 245 359 27 43 48 67 65 68 67 69 65 70 71 71 73 73 71 69 76 80 86 91 97 97
348 254 255 247 251 266 271 280 292 296 297 293 286 268 264 266 250 221 216 224 176 103 21 53 78 78 72 74 70 68 74 80 78 76 77 76 76 82 86 93 97 102 104
320 317 268 295 240 270 289 297 291 299 313 305 299 296 287 268 245 225 214 223 201 194 345 38 81 102 84 83 78 77 76 85 89 81 81 80 82 86 92 98 101 106 114
314 307 298 307 320 322 324 304 307 298 304 308 314 296 290 284 259 228 217 247 254 274 296 328 64 102 105 85 84 87 82 85 95 90 86 87 89 92 98 105 108 108 116
319 310 303 307 307 318 333 339 333 331 315 301 306 309 313 287 270 247 222 248 245 268 268 285 328 50 108 91 88 92 93 95 101 101 94 90 97 100 105 112 112 114 112
310 312 315 311 316 324 331 339 337 329 333 300 288 305 316 336 319 290 271 261 258 265 264 278 296 324 77 103 88 98 99 103 106 111 106 98 100 107 111 116 119 119 119
306 311 313 315 326 332 335 336 330 332 326 319 305 289 293 304 257 216 193 198 204 244 254 266 285 305 7 89 87 94 109 107 117 121 123 110 104 106 113 120 123 121 122
307 309 315 322 327 333 335 335 340 337 333 323 319 315 318 332 325 274 225 250 244 228 237 259 276 292 305 82 103 89 96 119 119 126 141 131 112 109 111 114 121 132 129
322 318 317 325 332 332 331 330 334 330 329 327 322 329 330 332 358 349 306 268 261 254 245 253 264 278 291 332 37 85 85 118 131 134 133 140 131 112 110 114 119 122 139
344 339 339 340 343 344 341 342 349 351 348 333 330 334 339 343 347 343 1 279 267 252 246 251 267 277 289 294 307 337 14 67 99 140 149 143 141 137 122 121 123 128 129
358 352 344 344 347 344 346 351 358 5 10 2 3 8 5 7 7 5 16 329 275 309 263 268 284 276 290 296 302 307 320 9 67 103 138 153 151 146 144 136 135 134 130
358 358 354 354 353 351 350 353 358 7 10 13 12 12 12 17 19 17 10 347 338 311 327 323 301 302 294 293 301 309 311 316 334 78 104 141 152 154 156 164 162 153 151